Lytton, British Columbia

2:12 PM PDT on October 19, 2017 (GMT -0700)
Lytton

Weather History for CWLY - November, 2012

Change the Weather History Date:

Saturday, November 3, 2012

  Actual Average Record
Temperature  
Mean Temperature 48 °F -  
Max Temperature 54 °F 40 °F 62 °F (2007)
Min Temperature 43 °F 30 °F 21 °F (2002)
Degree Days  
Heating Degree Days 16    
Moisture  
Dew Point 47 °F    
Average Humidity 85    
Maximum Humidity 100    
Minimum Humidity 69    
Precipitation  
Precipitation 0.08 in 0.09 in - ()
Sea Level Pressure  
Sea Level Pressure 29.94 in    
Wind  
Wind Speed 10 mph ()    
Max Wind Speed 29 mph    
Max Gust Speed 43 mph    
Visibility 9.0 miles    
Events      
Averages and records for this station are not official NWS values.
T = Trace of Precipitation, MM = Missing Value Source: Averaged Metar Reports

Daily Weather History Graph

Daily Weather History Graph

Search for Another Location

Airport or City:

Trip Planner

Search our weather history database for the weather conditions in past years. The results will help you decide how hot, cold, wet, or windy it might be!

Date:

Astronomy

Nov. 03, 2012 Rise Set
Actual Time 8:00 AM PDT 5:38 PM PDT
Civil Twilight 7:26 AM PDT 6:12 PM PDT
Nautical Twilight 6:47 AM PDT 6:51 PM PDT
Astronomical Twilight 6:10 AM PDT 7:28 PM PDT
Moon 9:14 PM PDT (11/3) 12:19 PM PDT (11/3)
Length of Visible Light 10h 45m
Length of Day
9h 37m
Waning Gibbous, 79% of the Moon is Illuminated
Nov 3
Waning Gibbous
Nov 6
Last Quarter
Nov 13
New
Nov 20
First Quarter
Nov 28
Full

Hourly Weather History & Observations

Time (PDT) Temp. Windchill Dew Point Humidity Pressure Visibility Wind Dir Wind Speed Gust Speed Precip Events Conditions
12:00 AM 50.0 °F - 44.6 °F 82% 29.93 in 9.0 mi Calm Calm - N/A   Clear
1:00 AM 51.8 °F - 46.4 °F 82% 29.92 in 9.0 mi SSW 9.2 mph - N/A   Scattered Clouds
1:33 AM 51.8 °F - 46.4 °F 82% 29.90 in 9.0 mi South 11.5 mph 20.7 mph N/A   Partly Cloudy
1:37 AM 51.8 °F - 46.4 °F 82% 29.90 in 9.0 mi SSW 13.8 mph 20.7 mph N/A   Partly Cloudy
1:44 AM 51.8 °F - 46.4 °F 82% 29.90 in 9.0 mi South 10.4 mph 20.7 mph N/A   Partly Cloudy
1:45 AM 51.8 °F - 46.4 °F 82% 29.90 in 9.0 mi South 6.9 mph 20.7 mph N/A   Partly Cloudy
2:00 AM 51 °F - 46 °F 77% 29.92 in 9 mi SSE 9.2 mph - -  
2:00 AM 51.8 °F - 46.4 °F 82% 29.92 in 9.0 mi South 10.4 mph - N/A   Partly Cloudy
3:00 AM 50.0 °F - 44.6 °F 82% 29.91 in 9.0 mi SE 2.3 mph - N/A   Clear
4:00 AM 51.8 °F - 44.6 °F 76% 29.90 in 9.0 mi South 15.0 mph 24.2 mph N/A   Partly Cloudy
5:00 AM 51 °F - 45 °F 73% 29.89 in 9 mi SSW 16.1 mph - -  
5:00 AM 51.8 °F - 44.6 °F 76% 29.89 in 9.0 mi South 13.8 mph 33.4 mph N/A   Clear
6:00 AM 51.8 °F - 44.6 °F 76% 29.88 in 9.0 mi SSW 13.8 mph 28.8 mph N/A   Clear
7:00 AM 51.8 °F - 44.6 °F 76% 29.87 in 9.0 mi South 19.6 mph 31.1 mph N/A   Partly Cloudy
8:00 AM 52 °F - 45 °F 69% 29.86 in 9 mi South 18.4 mph - -  
8:00 AM 51.8 °F - 44.6 °F 76% 29.86 in 9.0 mi South 20.7 mph 29.9 mph N/A   Partly Cloudy
8:15 AM 51.8 °F - 46.4 °F 82% 29.85 in 9.0 mi South 20.7 mph 35.7 mph N/A   Partly Cloudy
8:31 AM 51.8 °F - 46.4 °F 82% 29.85 in 9.0 mi South 19.6 mph 31.1 mph N/A   Partly Cloudy
9:00 AM 51.8 °F - 46.4 °F 82% 29.85 in 9.0 mi SSW 23.0 mph 34.5 mph N/A   Partly Cloudy
9:55 AM 53.6 °F - 44.6 °F 72% 29.83 in 9.0 mi South 20.7 mph 32.2 mph N/A   Partly Cloudy
10:00 AM 53.6 °F - 44.6 °F 72% 29.85 in 9.0 mi South 24.2 mph 40.3 mph N/A   Partly Cloudy
10:09 AM 53.6 °F - 44.6 °F 72% 29.82 in 9.0 mi South 25.3 mph 38.0 mph N/A   Partly Cloudy
10:26 AM 53.6 °F - 46.4 °F 77% 29.83 in 9.0 mi SSW 24.2 mph 42.6 mph N/A   Clear
10:42 AM 53.6 °F - 46.4 °F 77% 29.83 in 9.0 mi SSW 23.0 mph 41.4 mph N/A   Clear
11:00 AM 53 °F - 46 °F 70% 29.85 in 9 mi SSW 28.8 mph - -  
11:00 AM 53.6 °F - 46.4 °F 77% 29.85 in 9.0 mi SSW 28.8 mph 41.4 mph N/A   Clear
11:39 AM 55.4 °F - 46.4 °F 72% 29.84 in 9.0 mi South 21.9 mph 34.5 mph N/A   Partly Cloudy
12:00 PM 55.4 °F - 46.4 °F 72% 29.86 in 9.0 mi South 21.9 mph 34.5 mph N/A   Partly Cloudy
12:04 PM 53.6 °F - 46.4 °F 77% 29.85 in 9.0 mi SSW 23.0 mph 34.5 mph N/A   Partly Cloudy
12:09 PM 53.6 °F - 46.4 °F 77% 29.85 in 9.0 mi SSW 24.2 mph 35.7 mph N/A   Partly Cloudy
1:00 PM 53.6 °F - 48.2 °F 82% 29.90 in 9.0 mi SSW 15.0 mph 27.6 mph N/A   Partly Cloudy
2:00 PM 53 °F - 48 °F 78% 29.93 in 9 mi South 15.0 mph - -  
2:00 PM 53.6 °F - 48.2 °F 82% 29.93 in 9.0 mi South 15.0 mph 21.9 mph N/A   Partly Cloudy
3:00 PM 51.8 °F - 48.2 °F 88% 29.97 in 9.0 mi SSE 5.8 mph - N/A   Mostly Cloudy
3:48 PM 51.8 °F - 50.0 °F 94% 29.98 in 8.0 mi SSW 2.3 mph - N/A   Overcast
4:00 PM 51.8 °F - 50.0 °F 94% 30.00 in 9.0 mi SSE 3.5 mph - N/A   Mostly Cloudy
4:07 PM 51.8 °F - 50.0 °F 94% 29.98 in 9.0 mi South 2.3 mph - N/A   Overcast
4:16 PM 50.0 °F - 50.0 °F 100% 29.98 in 9.0 mi Calm Calm - N/A   Overcast
4:40 PM 50.0 °F - 50.0 °F 100% 29.98 in 8.0 mi SW 2.3 mph - N/A   Mostly Cloudy
5:00 PM 50 °F - 48 °F 92% 30.00 in 9 mi SSE 9.2 mph - -  
5:00 PM 50.0 °F - 48.2 °F 94% 30.00 in 9.0 mi SSE 6.9 mph - N/A   Mostly Cloudy
5:23 PM 50.0 °F - 48.2 °F 94% 30.00 in 9.0 mi Calm Calm - N/A   Overcast
5:28 PM 50.0 °F - 48.2 °F 94% 30.00 in 9.0 mi SSW 2.3 mph - N/A   Overcast
5:33 PM 50.0 °F - 48.2 °F 94% 30.00 in 9.0 mi Calm Calm - N/A   Overcast
5:42 PM 50.0 °F - 48.2 °F 94% 29.99 in 9.0 mi SSE 4.6 mph - N/A   Mostly Cloudy
6:00 PM 50.0 °F - 48.2 °F 94% 30.01 in 9.0 mi South 5.8 mph - N/A   Scattered Clouds
6:26 PM 50.0 °F - 48.2 °F 94% 30.01 in 9.0 mi SSE 5.8 mph - N/A   Partly Cloudy
6:38 PM 50.0 °F - 46.4 °F 87% 30.01 in 9.0 mi South 5.8 mph - N/A   Partly Cloudy
7:00 PM 48.2 °F - 46.4 °F 93% 30.03 in 9.0 mi SE 5.8 mph - N/A   Partly Cloudy
7:22 PM 48.2 °F - 46.4 °F 93% 30.02 in 9.0 mi South 4.6 mph - N/A   Clear
7:25 PM 48.2 °F - 46.4 °F 93% 30.02 in 9.0 mi South 3.5 mph - N/A   Clear
7:42 PM 48.2 °F - 46.4 °F 93% 30.03 in 9.0 mi South 4.6 mph - N/A   Clear
7:54 PM 48.2 °F - 46.4 °F 93% 30.03 in 9.0 mi South 3.5 mph - N/A   Partly Cloudy
7:55 PM 48.2 °F - 46.4 °F 93% 30.03 in 9.0 mi South 4.6 mph - N/A   Partly Cloudy
8:00 PM 48 °F - 46 °F 91% 30.05 in 9 mi South 3.5 mph - -  
8:00 PM 48.2 °F - 46.4 °F 93% 30.05 in 9.0 mi SSE 3.5 mph - N/A   Partly Cloudy
9:00 PM 48.2 °F - 46.4 °F 93% 30.06 in 9.0 mi South 2.3 mph - N/A   Clear
10:00 PM 48.2 °F - 46.4 °F 93% 30.09 in 9.0 mi South 5.8 mph - N/A   Clear
11:00 PM 47 °F - 45 °F 91% 30.12 in 9 mi Calm Calm - -  
11:00 PM 46.4 °F 45.2 °F 44.6 °F 93% 30.12 in 9.0 mi NNW 3.5 mph - N/A   Clear